{"data":{"norad_id":68788,"intl_designator":"2026-086Y","name":"STARLINK-37403","alt_names":[],"object_type":"PAYLOAD","status":"ACTIVE","operator":null,"country":"US","launch_date":"2026-04-19","launch_site_code":"AFWTR","launch_vehicle":null,"mission":null,"orbit_class":"UNKNOWN","rcs_meters":null,"size_class":null,"mass_kg":null,"dimensions":null,"purposes":["comms"],"wikipedia_slug":null,"has_3d_model":false,"image_url":null,"decayed_at":null,"tle_current":{"epoch":"2026-05-25T05:11:57.892128Z","epoch_age_seconds":57152,"freshness":"FRESH","line1":"1 68788U 26086Y   26145.21664227  .00193056  00000+0  13597-2 0  9997","line2":"2 68788  97.2856 182.1126 0002094  62.3416 297.8061 15.73526436  5543","mean_motion":15.73526436,"eccentricity":0.0002094,"inclination_deg":97.2856,"raan_deg":182.1126,"arg_perigee_deg":62.3416,"mean_anomaly_deg":297.8061,"bstar":0.0013597,"rev_number":554,"period_min":91.514191757754,"perigee_km":347.41902454906,"apogee_km":350.23627734487,"semimajor_km":6726.964650947,"source":"CELESTRAK","updated_at":"2026-05-25T13:38:22.039094Z"}}}